Weather reports worldwide

Advertisment
Arezzo, Italy (16172): temperature & dewpoint: 22.01.2020 08:00:00 - 28.01.2020 08:00:00 (CET)Arezzo, Italy (16172): wind speed: 22.01.2020 08:00:00 - 28.01.2020 08:00:00 (CET)Arezzo, Italy (16172): wind direction: 22.01.2020 08:00:00 - 28.01.2020 08:00:00 (CET)Arezzo, Italy (16172): reduced air pressure: 22.01.2020 08:00:00 - 28.01.2020 08:00:00 (CET)Arezzo, Italy (16172): visibility: 22.01.2020 08:00:00 - 28.01.2020 08:00:00 (CET)
Date & Time tt [°C] td [°C] ff [km/h] ff [kn] dd ppp [hPa] vv [km]
28.01.2020 08:00:00 - - - - - - -
28.01.2020 07:00:00 8,8 6,6 18 10 S 1014,6 12
28.01.2020 06:00:00 - - - - - - -
28.01.2020 05:00:00 - - - - - - -
28.01.2020 04:00:00 - - - - - - -
28.01.2020 03:00:00 - - - - - - -
28.01.2020 02:00:00 - - - - - - -
28.01.2020 01:00:00 - - - - - - -
28.01.2020 00:00:00 - - - - - - -
27.01.2020 23:00:00 - - - - - - -
27.01.2020 22:00:00 - - - - - - -
27.01.2020 21:00:00 - - - - - - -
27.01.2020 20:00:00 - - - - - - -
27.01.2020 19:00:00 7,8 6,7 0 0 N 1019,8 12
27.01.2020 18:00:00 - - - - - - -
27.01.2020 17:00:00 - - - - - - -
27.01.2020 16:00:00 10,0 6,4 5 3 SW 1020,0 12
27.01.2020 15:00:00 - - - - - - -
27.01.2020 14:00:00 - - - - - - -
27.01.2020 13:00:00 9,6 6,7 8 4 SSW 1021,0 10
27.01.2020 12:00:00 - - - - - - -
27.01.2020 11:00:00 - - - - - - -
27.01.2020 10:00:00 6,4 6,2 0 0 N 1021,4 0,7
27.01.2020 09:00:00 - - - - - - -
27.01.2020 08:00:00 - - - - - - -
27.01.2020 07:00:00 4,8 4,5 0 0 N 1020,6 0,8
27.01.2020 06:00:00 - - - - - - -
27.01.2020 05:00:00 - - - - - - -
27.01.2020 04:00:00 - - - - - - -
27.01.2020 03:00:00 - - - - - - -
27.01.2020 02:00:00 - - - - - - -
27.01.2020 01:00:00 - - - - - - -
27.01.2020 00:00:00 - - - - - - -
26.01.2020 23:00:00 - - - - - - -
26.01.2020 22:00:00 - - - - - - -
26.01.2020 21:00:00 - - - - - - -
26.01.2020 20:00:00 - - - - - - -
26.01.2020 19:00:00 7,8 7,0 0 0 N 1019,5 10
26.01.2020 18:00:00 - - - - - - -
26.01.2020 17:00:00 - - - - - - -
26.01.2020 16:00:00 11,2 6,5 0 0 N 1019,5 17
26.01.2020 15:00:00 - - - - - - -
26.01.2020 14:00:00 - - - - - - -
26.01.2020 13:00:00 11,0 7,5 8 4 SSW 1020,6 10
26.01.2020 12:00:00 - - - - - - -
26.01.2020 11:00:00 - - - - - - -
26.01.2020 10:00:00 8,2 7,8 0 0 N 1021,5 1,5
26.01.2020 09:00:00 - - - - - - -
26.01.2020 08:00:00 - - - - - - -
26.01.2020 07:00:00 7,0 6,7 0 0 N 1021,4 0,6
26.01.2020 06:00:00 - - - - - - -
26.01.2020 05:00:00 - - - - - - -
26.01.2020 04:00:00 - - - - - - -
26.01.2020 03:00:00 - - - - - - -
26.01.2020 02:00:00 - - - - - - -
26.01.2020 01:00:00 - - - - - - -
26.01.2020 00:00:00 - - - - - - -
25.01.2020 23:00:00 - - - - - - -
25.01.2020 22:00:00 - - - - - - -
25.01.2020 21:00:00 - - - - - - -
25.01.2020 20:00:00 - - - - - - -
25.01.2020 19:00:00 9,0 8,5 4 2 NNE 1022,2 3,0
25.01.2020 18:00:00 - - - - - - -
25.01.2020 17:00:00 - - - - - - -
25.01.2020 16:00:00 11,0 9,1 0 0 N 1022,0 5
25.01.2020 15:00:00 - - - - - - -
25.01.2020 14:00:00 - - - - - - -
25.01.2020 13:00:00 11,6 8,6 9 5 SSW 1023,1 12
25.01.2020 12:00:00 - - - - - - -
25.01.2020 11:00:00 - - - - - - -
25.01.2020 10:00:00 8,0 7,5 0 0 N 1023,5 10
25.01.2020 09:00:00 - - - - - - -
25.01.2020 08:00:00 - - - - - - -
25.01.2020 07:00:00 7,0 6,5 0 0 N 1023,6 2,5
25.01.2020 06:00:00 - - - - - - -
25.01.2020 05:00:00 - - - - - - -
25.01.2020 04:00:00 - - - - - - -
25.01.2020 03:00:00 - - - - - - -
25.01.2020 02:00:00 - - - - - - -
25.01.2020 01:00:00 - - - - - - -
25.01.2020 00:00:00 - - - - - - -
24.01.2020 23:00:00 - - - - - - -
24.01.2020 22:00:00 - - - - - - -
24.01.2020 21:00:00 - - - - - - -
24.01.2020 20:00:00 - - - - - - -
24.01.2020 19:00:00 6,0 4,2 0 0 N 1025,6 4,0
24.01.2020 18:00:00 - - - - - - -
24.01.2020 17:00:00 - - - - - - -
24.01.2020 16:00:00 10,2 4,6 0 0 N 1026,2 7
24.01.2020 15:00:00 - - - - - - -
24.01.2020 14:00:00 - - - - - - -
24.01.2020 13:00:00 8,0 2,5 8 4 WSW 1028,2 4,0
24.01.2020 12:00:00 - - - - - - -
24.01.2020 11:00:00 - - - - - - -
24.01.2020 10:00:00 1,0 0,7 0 0 N 1029,3 1,5
24.01.2020 09:00:00 - - - - - - -
24.01.2020 08:00:00 - - - - - - -
24.01.2020 07:00:00 -3,2 -3,2 0 0 N 1029,2 3,0
24.01.2020 06:00:00 - - - - - - -
24.01.2020 05:00:00 - - - - - - -
24.01.2020 04:00:00 - - - - - - -
24.01.2020 03:00:00 - - - - - - -
24.01.2020 02:00:00 - - - - - - -
24.01.2020 01:00:00 - - - - - - -
24.01.2020 00:00:00 - - - - - - -
23.01.2020 23:00:00 - - - - - - -
23.01.2020 22:00:00 - - - - - - -
23.01.2020 21:00:00 - - - - - - -
23.01.2020 20:00:00 - - - - - - -
23.01.2020 19:00:00 5,0 3,0 5 3 SSE 1028,8 4,0
23.01.2020 18:00:00 - - - - - - -
23.01.2020 17:00:00 - - - - - - -
23.01.2020 16:00:00 11,0 4,2 5 3 SSW 1028,6 7
23.01.2020 15:00:00 - - - - - - -
23.01.2020 14:00:00 - - - - - - -
23.01.2020 13:00:00 9,4 3,4 5 3 SW 1030,5 16
23.01.2020 12:00:00 - - - - - - -
23.01.2020 11:00:00 - - - - - - -
23.01.2020 10:00:00 3,0 1,5 0 0 N 1031,5 6
23.01.2020 09:00:00 - - - - - - -
23.01.2020 08:00:00 - - - - - - -
23.01.2020 07:00:00 -2,2 -2,2 0 0 N 1031,7 0,2
23.01.2020 06:00:00 - - - - - - -
23.01.2020 05:00:00 - - - - - - -
23.01.2020 04:00:00 - - - - - - -
23.01.2020 03:00:00 - - - - - - -
23.01.2020 02:00:00 - - - - - - -
23.01.2020 01:00:00 - - - - - - -
23.01.2020 00:00:00 - - - - - - -
22.01.2020 23:00:00 - - - - - - -
22.01.2020 22:00:00 - - - - - - -
22.01.2020 21:00:00 - - - - - - -
22.01.2020 20:00:00 - - - - - - -
22.01.2020 19:00:00 5,0 3,5 0 0 N 1031,9 14
22.01.2020 18:00:00 - - - - - - -
22.01.2020 17:00:00 - - - - - - -
22.01.2020 16:00:00 11,4 2,4 4 2 SW 1032,2 20
22.01.2020 15:00:00 - - - - - - -
22.01.2020 14:00:00 - - - - - - -
22.01.2020 13:00:00 9,0 1,7 4 2 SW 1035,4 20
22.01.2020 12:00:00 - - - - - - -
22.01.2020 11:00:00 - - - - - - -
22.01.2020 10:00:00 3,0 1,5 0 0 N 1037,3 18
22.01.2020 09:00:00 - - - - - - -
22.01.2020 08:00:00 - - - - - - -

tt = temperature
td = dewpoint
ff = wind speed
dd = wind direction
ppp = reduced air pressure
vv = visibility

Next stations